Location: ??????????
(48.4399°N, 34.4503°E)
Time: 06:35:42
(UTC+00:00)

Daily predictions for brighter satellites

Satellite Brightness Start Highest point End
(mag) Time Altitude Azimuth Time Altitude Azimuth Time Altitude Azimuth
ADEOS Rocket 3.3 14:50:15 10° NNE 14:56:39 86° ESE 15:03:46 10° SSW
Lacrosse 5 2.9 14:54:44 10° W 14:59:25 36° NNW 15:04:07 10° NE
USA 281 3.3 14:54:59 10° SSE 15:01:33 89° WSW 15:08:10 10° NNW
Aureole 3 4.4 15:01:01 10° SE 15:02:55 15° E 15:04:46 10° NE
Envisat 3.6 14:58:05 10° S 15:03:07 66° WSW 15:08:12 10° NNW
Cosmos 1825 Rocket 3.6 14:58:59 10° N 15:03:26 63° ENE 15:07:49 10° SSE
Cosmos 292 Rocket 4.3 15:00:20 10° S 15:04:47 40° ESE 15:09:18 10° NE
Okean O Rocket 1.7 15:03:33 10° SSE 15:07:56 84° WSW 15:12:19 10° NNW
Meteor 2-14 Rocket 4.4 15:03:35 10° N 15:09:46 77° E 15:15:53 10° SSE
YAOGAN 1 3.9 15:07:09 10° ESE 15:10:19 20° ENE 15:13:30 10° NNE
Feng Yun 1-1 Rocket 4.5 15:05:25 10° SE 15:11:10 57° ENE 15:16:58 10° N
FALCON 9 DEB 4.1 15:09:16 10° WNW 15:12:29 36° N 15:15:37 10° ENE
CZ-2C R/B 4.1 15:08:01 10° ESE 15:12:48 28° ENE 15:17:28 10° N
Cosmos 2219 3.5 15:07:13 10° NNW 15:12:50 50° NE 15:18:25 10° SE
ERBS 4.2 15:12:32 10° WNW 15:15:08 21° N 15:17:46 10° NE
SMAP 3.4 15:11:11 10° S 15:15:49 72° WSW 15:20:29 10° NNW
Cosmos 1943 Rocket 4.4 15:12:03 10° W 15:15:58 19° NW 15:19:53 10° N
FALCON 9 DEB 3.8 15:13:01 10° SSW 15:16:00 36° SE 15:18:41 12° ENE
Meteor 2-21 4.5 15:10:12 10° N 15:16:24 89° ENE 15:22:30 10° S
Cosmos 1726 Rocket 3.7 15:15:59 10° S 15:20:13 53° E 15:24:30 10° NNE
FALCON 9 DEB 3.6 15:17:18 10° SW 15:20:19 40° SE 15:22:50 14° ENE
Cosmos 1455 4.1 15:20:05 10° ESE 15:21:06 12° E 15:21:06 12° E
Cosmos 1758 Rocket 4.1 15:17:47 10° NNW 15:22:10 65° W 15:26:29 10° S
USA 307 3.4 15:20:51 10° WNW 15:25:01 47° NNE 15:28:30 14° E
ATLAS 5 CENTAUR R/B 3.7 15:23:10 10° WNW 15:26:29 20° NNW 15:30:11 10° NNE
Cosmos 2228 2.9 15:23:17 10° S 15:27:31 84° E 15:31:50 10° N
Cosmos 1939 Rocket 2.9 15:25:27 10° SSE 15:29:19 53° ENE 15:33:09 10° N
USA 308 3.3 15:25:41 10° WNW 15:29:52 49° NNE 15:33:09 15° E
CZ-4B R/B 1.2 15:28:56 10° NNE 15:32:11 88° WNW 15:35:20 10° SSW
FALCON 9 DEB 3.4 15:29:04 10° SW 15:32:12 48° SSE 15:34:19 18° ENE
CZ-4B R/B 4.4 15:29:11 10° S 15:34:35 49° W 15:39:56 10° NNW
Cosmos 1606 Rocket 3.6 15:31:25 10° S 15:35:47 86° W 15:40:13 10° N
ARGOS 4.3 15:31:42 10° ESE 15:35:54 23° ENE 15:40:06 10° N
Helios 1A Rocket 3.2 15:32:14 10° SE 15:36:10 45° ENE 15:40:06 10° N
Cosmos 1745 Rocket 4.4 15:33:58 10° N 15:39:53 41° ENE 15:45:50 10° SE
Cosmos 1656 4.0 15:35:14 10° S 15:40:25 42° ESE 15:45:43 10° NE
GENESIS II 4.5 15:37:01 10° SW 15:41:03 73° NW 15:45:05 10° NE
Okean-O 2.8 15:37:03 10° SE 15:41:18 47° ENE 15:45:34 10° N
SKYMED 2 3.6 15:38:02 10° NNE 15:42:19 55° E 15:46:35 10° S
BREEZE-M R/B 3.4 15:39:47 10° W 15:43:22 77° N 15:48:28 18° E
FALCON 9 DEB 3.0 15:40:43 10° SW 15:43:54 62° SSE 15:45:35 25° ENE
Meteor 2-16 Rocket 4.5 15:39:20 10° N 15:45:28 86° W 15:51:34 10° S
H-2A R/B 2.8 15:41:20 10° SE 15:46:12 35° ENE 15:51:06 10° N
Cosmos 2227 Rocket 2.2 15:41:17 10° NNW 15:46:57 68° ENE 15:52:35 10° SE
GEOS 3 Rocket 4.0 15:43:25 15° ESE 15:47:40 47° NE 15:52:49 10° NNW
Cosmos 1689 Rocket 2.0 15:45:53 10° NNE 15:48:45 56° ESE 15:51:35 10° S
Cosmos 1400 Rocket 2.8 15:44:57 10° S 15:49:02 65° E 15:53:06 10° NNE
PSLV R/B 4.0 15:47:18 10° NNE 15:51:26 56° E 15:55:30 10° S
Cosmos 2263 Rocket 3.6 15:48:16 10° N 15:52:17 19° NE 15:53:51 17° ENE
Cosmos 1244 Rocket 4.5 15:46:15 10° N 15:52:29 90° E 15:58:45 10° S
NOSS 3-4 (A) 4.5 15:46:22 10° NW 15:52:30 36° NNE 15:56:44 20° E
NOSS 3-4 (C) 4.5 15:46:29 10° NW 15:52:35 35° NNE 15:56:49 20° E
CZ-4 R/B 1.3 15:49:21 10° SSE 15:53:09 53° ENE 15:56:55 10° N
Cosmos 2058 3.3 15:49:24 10° N 15:53:16 39° ENE 15:57:08 10° SE
CSL-04 Rocket 4.1 15:48:21 10° SE 15:53:30 40° ENE 15:58:37 10° N
CZ-4C R/B 4.0 15:49:52 10° NW 15:55:10 26° NNE 15:59:13 16° ENE
Cosmos 1892 2.7 15:52:02 10° N 15:55:53 57° ENE 15:59:42 10° SSE
Cosmos 1408 2.9 15:57:14 10° N 16:00:44 41° ENE 16:02:50 21° SE
NOSS 3-3 (A) 4.4 15:58:23 10° S 16:03:37 36° ESE 16:06:48 22° ENE
NOSS 3-3 (C) 4.4 15:58:28 10° S 16:03:44 36° ESE 16:06:55 22° ENE
Cosmos 1697 Rocket 3.2 15:59:41 10° S 16:04:44 36° ESE 16:07:49 21° NE
IRS-1C Rocket 4.4 16:01:48 10° S 16:07:02 68° WSW 16:12:19 10° NNW
Cosmos 1300 3.9 16:04:30 10° SSW 16:08:08 43° WNW 16:11:49 10° N
USA 215 3.8 16:04:18 22° ENE 16:08:17 47° NNE 16:14:29 10° WNW
SeaSat 1 3.0 16:06:39 28° E 16:08:32 38° NE 16:13:06 10° NNW
Cosmos 2058 Rocket 3.2 16:04:32 10° SSW 16:09:01 78° W 16:13:34 10° N
Cosmos 1709 Rocket 4.4 16:03:41 10° N 16:09:41 40° ENE 16:14:55 13° SE
SL-4 R/B 2.0 16:09:02 10° WNW 16:12:33 54° N 16:13:29 41° ENE
CZ-2D R/B 3.5 16:09:03 10° S 16:12:51 68° W 16:16:39 10° NNW
Cosmos 1346 Rocket 2.7 16:10:18 10° N 16:14:18 70° ENE 16:18:16 10° SSE
ATLAS 2AS CENTAUR R/B 3.5 16:07:32 10° NW 16:14:39 38° NNE 16:17:50 27° ENE
USA 305 2.8 16:11:35 10° WNW 16:15:54 74° NNE 16:17:18 41° E
Cosmos 44 3.8 16:12:10 10° SW 16:16:39 56° NW 16:20:38 14° NNE
Cosmos 1825 2.6 16:13:37 10° N 16:16:47 40° NE 16:16:47 40° NE
SJ-11-01 4.2 16:15:01 12° SSE 16:19:16 60° ENE 16:23:53 10° N
Cosmos 1315 Rocket 2.9 16:16:18 10° S 16:20:07 49° E 16:20:29 47° ENE
USA 306 2.8 16:18:00 10° WNW 16:22:18 79° NNE 16:23:25 48° ESE
Cosmos 968 Rocket 3.6 16:18:56 10° NNW 16:24:10 76° WSW 16:29:19 10° SSE
Aureole 3 Rocket 3.8 16:21:15 10° SSW 16:25:13 59° WNW 16:30:47 10° N
Cosmos 2297 Rocket 2.9 16:21:15 10° NW 16:26:47 54° WSW 16:32:15 10° S
Cosmos 1980 Rocket 3.4 16:22:39 10° SSE 16:25:27 24° SE 16:25:27 24° SE
MOS 1 Rocket 3.3 16:24:32 10° NNE 16:29:09 58° E 16:34:01 10° S
Cosmos 1340 4.2 16:26:20 10° NNW 16:29:50 37° W 16:33:20 10° SSW
COSMO-SKYMED 1 3.5 16:26:10 10° N 16:30:22 49° WNW 16:34:34 10° SW
Cosmos 2315 Rocket 4.3 16:24:44 10° SSE 16:30:28 41° E 16:36:14 10° NNE
S3M 3.8 16:24:58 10° S 16:31:04 78° E 16:37:15 10° NNE
HJ-1C 4.5 16:34:03 34° N 16:34:03 34° N 16:36:08 10° N
Cosmos 1076 Rocket 3.3 16:28:44 10° N 16:33:01 76° E 16:34:44 35° SSE
CSL-04 Debris 4.1 16:28:20 10° SSE 16:33:46 85° ENE 16:39:16 10° NNW
Cosmos 2360 4.2 16:37:40 10° S 16:43:13 55° ESE 16:44:09 49° ENE
Lacrosse 5 2.9 16:38:52 10° NW 16:43:26 32° N 16:44:18 31° NNE
YAOGAN 1 3.4 16:41:54 10° S 16:46:06 50° W 16:50:20 10° NNW
FALCON 9 DEB 4.3 16:46:30 10° WNW 16:48:52 38° NW 16:48:52 38° NW
FALCON 9 DEB 4.5 16:48:52 10° W 16:51:05 36° WNW 16:51:05 36° WNW
CZ-2C R/B 3.9 16:46:38 10° S 16:52:20 57° W 16:57:53 10° NNW
Meteor 2-3 Rocket 4.3 16:48:01 10° N 16:52:24 40° NE 16:52:24 40° NE
Cosmos 1812 Rocket 3.5 16:49:08 10° S 16:58:41 - N 16:53:14 78° S
Cosmos 1503 Rocket 4.2 16:48:56 10° NNW 16:54:09 71° WSW 16:56:47 30° S
Cosmos 2278 4.4 16:51:07 10° S 16:54:44 37° SSE 16:54:44 37° SSE
Cosmos 1455 2.8 16:52:52 10° SSW 16:56:10 54° WSW 16:56:10 54° WSW
Meteor 2-10 Rocket 4.1 16:58:38 10° SSW 17:03:50 55° WNW 17:08:53 10° N
USA 307 3.4 17:00:59 10° WNW 17:04:41 56° WSW 17:04:41 56° WSW
Cosmos 1354 Rocket 4.3 17:00:26 10° NNW 17:05:39 65° WSW 17:07:26 40° S
Cosmos 2082 4.2 17:00:11 10° NW 17:05:49 58° WSW 17:08:49 27° S
USA 308 3.7 17:05:49 10° WNW 17:09:20 50° WSW 17:09:20 50° WSW
ATLAS 5 CENTAUR R/B 4.1 17:10:09 10° NNW 17:13:02 15° N 17:13:29 15° NNE
ARGOS 3.5 17:13:10 31° S 17:15:43 64° WSW 17:21:09 10° NNW
Cosmos 2369 3.8 17:14:29 10° SSW 17:20:12 76° WNW 17:21:09 61° N
H-2A R/B 3.3 17:20:27 10° SSW 17:25:31 41° W 17:30:41 10° NNW
Ariane Rocket 3.8 17:27:38 43° NNW 17:27:38 43° NNW 17:31:01 10° NNW
CZ-4 R/B 4.3 17:26:19 10° SW 17:28:30 14° W 17:30:41 10° NW
Cosmos 2227 Rocket 4.4 17:26:15 10° NW 17:30:28 22° W 17:34:40 10° SSW
Cosmos 2263 Rocket 2.8 17:31:27 10° NNW 17:35:34 48° NNW 17:35:34 48° NNW
Atlas Centaur 2 4.5 17:31:40 10° SW 17:37:33 21° S 17:37:33 21° S
NOSS 3-4 (A) 3.7 17:37:10 10° NW 17:44:08 84° SW 17:44:11 84° SW
NOSS 3-4 (C) 3.7 17:37:16 10° NW 17:44:14 85° SW 17:44:16 85° SW
CZ-4C R/B 3.2 17:38:25 10° NW 17:44:25 52° NNE 17:44:25 52° NNE
SeaSat 1 3.7 17:46:28 38° W 17:46:28 38° W 17:50:40 10° NW
Cosmos 1697 Rocket 3.7 17:43:17 10° SW 17:48:37 43° NW 17:49:38 39° NNW
USA 215 3.3 17:51:39 73° NW 17:51:39 73° NW 17:57:31 10° NW
NOSS 3-3 (A) 4.5 17:48:22 10° WSW 17:54:13 56° NW 17:54:18 56° NW
NOSS 3-3 (C) 4.5 17:48:28 10° WSW 17:54:21 56° NW 17:54:24 56° NW
ATLAS 2AS CENTAUR R/B 3.0 17:58:48 10° NW 18:05:17 66° WNW 18:05:17 66° WNW
Cosmos 1980 Rocket 4.2 18:05:42 10° SW 18:07:19 19° SW 18:07:19 19° SW
Lacrosse 5 4.3 18:22:05 10° NW 18:23:30 19° NW 18:23:30 19° NW
